User: anonymous   Login
Location: Theydon Bois
(51.6750°N, 0.1050°E)
Time: 05:56:37
(UTC+01:00)
Language:

Cosmos 1538 Rocket - Orbit

View from above orbital plane
View from above orbital plane
View from above satellite
View from above satellite

Ground track
Ground track

The orbit data is extracted from the following two-line orbital elements,

1 14760U 84019B   18196.25369659 +.00000053 +00000-0 +27431-4 0  9999
2 14760 074.0436 120.7715 0028999 244.8375 114.9770 14.35848325799789
Epoch (UTC): 15 July 2018 06:05:19
Eccentricity: 0.0028999
inclination: 74.0436°
perigee height: 751 km
apogee height: 793 km
right ascension of ascending node: 120.7715°
argument of perigee: 244.8375°
revolutions per day: 14.35848325
mean anomaly at epoch: 114.9770°
orbit number at epoch: 79978

The dashed part of the orbit path shows where the satellite is in the earth's shadow,  

DLR